[[{"header":{"parameterUnit":"m.s-1","parameterCategory":1,"la1":30.2991,"la2":30.254,"lo1":-89.0895,"lo2":-89.0444,"dy":0.0017,"dx":0.0017,"nx":28,"ny":28,"refTime":"2024-12-18T03:00:00:Z","depth":0,"parameterNumber":2,"parameterNumberName":"U-component_of_WINDS"},"data":[0,0,0,0,0,0,0,0,0,0,0,0,0,0,0,0,0,0,0,0,0,0,0,0,0,0,0,0,0,0,0,0,0,0,0,0,0,0,0,0,0,0,0,0,0,0,0,0,0,0,0,0,0,0,0,0,0,0,1.1519,1.1518,0,1.1449,1.1448,1.1447,1.14,1.14,1.14,1.1399,1.1327,1.1325,1.1323,0,0,0,0,0,0,0,0,0,0,0,0,0,1.1612,1.1611,1.1519,1.1518,1.1517,1.1449,1.1448,1.1447,1.14,1.14,1.14,1.1399,1.1327,1.1325,1.1323,0,0,0,0,0,0,0,0,0,0,0,0,0,1.156,1.161,1.1519,1.1486,1.1482,1.1449,1.1448,1.1447,1.14,1.14,1.1399,1.1399,1.1328,1.1325,1.1323,1.1318,0,0,1.1316,1.1315,0,0,0,0,0,0,0,0,1.1563,1.1557,1.1491,1.1488,1.1484,1.1433,1.1454,1.1403,1.1401,1.1431,1.1399,1.1399,1.1362,1.1357,1.1345,1.1314,1.1311,1.1315,1.1314,1.1313,1.1312,0,0,0,0,0,0,0,1.1567,1.1559,1.1491,1.1491,1.1486,1.1474,1.1466,1.1444,1.14,1.1429,1.1425,1.1417,1.136,1.1347,1.1343,1.131,1.1315,1.1313,1.1312,1.1311,1.1272,1.1273,0,0,0,0,0,0,1.1576,1.1563,1.1493,1.1489,1.1523,1.1473,1.1464,1.145,1.14,1.1393,1.1418,1.1416,1.1352,1.1346,1.134,1.1331,1.1313,1.1311,1.1309,1.1272,1.1272,1.1273,0,0,0,0,0,0,1.1578,1.157,1.1496,1.1525,1.1515,1.1472,1.1456,1.1448,1.1436,1.1392,1.1384,1.1413,1.1351,1.1344,1.1324,1.1328,1.1309,1.1307,1.1271,1.1272,1.1273,1.1312,0,0,0,0,0,0,1.1581,1.1571,1.1568,1.1525,1.1513,1.1481,1.1456,1.1447,1.1432,1.1428,1.1386,1.1378,1.135,1.1328,1.1321,1.1324,1.1305,1.1271,1.1272,1.1272,1.131,1.1314,1.1317,0,0,0,0,0,1.1584,1.1582,1.1568,1.156,1.1509,1.1481,1.1474,1.1443,1.1432,1.1429,1.1402,1.1379,1.1329,1.1326,1.1319,1.132,1.127,1.1271,1.1272,1.1309,1.1313,1.1317,0,0,0,0,0,0,1.1625,1.1575,1.156,1.1543,1.1517,1.1473,1.1468,1.1448,1.1424,1.1421,1.1383,1.1374,1.1358,1.1337,1.1336,1.1313,1.1297,1.1296,1.1327,1.1331,1.1335,1.1339,1.1303,0,0,0,0,0,1.1633,1.1615,1.1572,1.1561,1.1549,1.1511,1.1498,1.1476,1.1447,1.1435,1.1406,1.1379,1.1357,1.1343,1.132,1.1307,1.1298,1.1305,1.1309,1.1312,1.1312,1.1304,1.1307,1.1276,1.1276,1.1276,0,0,1.1647,1.1618,1.1609,1.1569,1.1546,1.1528,1.1502,1.1484,1.147,1.1433,1.1412,1.139,1.1357,1.1341,1.1333,1.1323,1.1318,1.1313,1.1316,1.1314,1.1305,1.1308,1.1311,1.1277,1.1277,1.1277,0,0,1.1665,1.1641,1.163,1.1608,1.1573,1.1549,1.1546,1.1506,1.149,1.1469,1.1441,1.1424,1.1387,1.1365,1.1348,1.136,1.1338,1.1353,1.1371,1.1365,1.1367,1.1369,1.1373,1.1375,1.1354,1.1354,1.1354,0,1.1687,1.1659,1.1626,1.161,1.1594,1.156,1.1549,1.1529,1.1489,1.1479,1.1469,1.1422,1.1397,1.1376,1.1379,1.1367,1.1363,1.1357,1.1369,1.1371,1.1372,1.1376,1.1377,1.1356,1.1355,1.1355,1.1355,0,1.1688,1.167,1.1665,1.1628,1.1611,1.1598,1.1563,1.155,1.1531,1.1507,1.1487,1.1456,1.1427,1.1421,1.14,1.1397,1.1392,1.1377,1.1359,1.1378,1.138,1.1381,1.1359,1.1358,1.1357,1.1357,0,0,1.1728,1.1675,1.1674,1.1657,1.1618,1.1602,1.1588,1.156,1.155,1.1524,1.1511,1.1481,1.1467,1.1448,1.1426,1.142,1.1431,1.1405,1.1404,1.1411,1.1426,1.1437,1.1439,1.1418,1.1418,1.1418,1.1428,0,1.1739,1.1711,1.1683,1.1665,1.1647,1.1616,1.1603,1.1578,1.1556,1.1538,1.1514,1.1493,1.1476,1.1465,1.1458,1.1431,1.1434,1.143,1.1405,1.1404,1.1413,1.1441,1.1452,1.1464,1.1429,1.1429,1.1429,0,1.1748,1.1725,1.1706,1.1669,1.1661,1.165,1.1623,1.1606,1.1577,1.1562,1.1542,1.1519,1.1502,1.1488,1.1465,1.1464,1.1452,1.1437,1.1437,1.1433,1.1417,1.1437,1.1467,1.1468,1.1431,1.1431,1.1431,0,1.1779,1.1743,1.1727,1.1714,1.1671,1.1664,1.1646,1.1616,1.1602,1.1578,1.1568,1.1543,1.1529,1.151,1.1481,1.1473,1.1461,1.1444,1.1447,1.1448,1.1445,1.1446,1.1473,1.1439,1.1439,1.1439,1.1439,0,1.1794,1.1784,1.174,1.173,1.1718,1.1685,1.1674,1.1653,1.1628,1.1613,1.1585,1.1572,1.1534,1.1517,1.1493,1.1478,1.1472,1.1459,1.1453,1.1461,1.1463,1.1452,1.145,1.1439,1.1439,1.1439,1.1439,0,1.1826,1.1797,1.1777,1.1739,1.1729,1.1722,1.1689,1.1678,1.1655,1.1638,1.1632,1.1596,1.1574,1.1543,1.1512,1.1496,1.1484,1.1475,1.1494,1.149,1.1496,1.1495,1.1517,1.1518,1.1484,1.1484,1.1484,0,1.1838,1.1829,1.179,1.1779,1.1762,1.1743,1.1729,1.1697,1.1683,1.165,1.1644,1.162,1.1599,1.1567,1.1538,1.1514,1.1503,1.1513,1.1499,1.1508,1.1503,1.1504,1.1503,1.1515,1.1516,1.1516,1.1517,0,1.1861,1.1847,1.1827,1.1803,1.1786,1.1765,1.1743,1.1735,1.1699,1.1685,1.1662,1.1647,1.1616,1.1592,1.1565,1.1546,1.1526,1.1521,1.1521,1.1529,1.154,1.1534,1.1502,1.1521,1.152,1.152,1.152,1.152,1.1882,1.1873,1.1845,1.1824,1.1805,1.1785,1.1773,1.175,1.1731,1.1703,1.1686,1.1665,1.1637,1.1598,1.1581,1.1564,1.1555,1.1555,1.1554,1.1554,1.1557,1.1544,1.1559,1.1559,1.1559,1.1559,1.1558,0,1.1904,1.1884,1.1866,1.1836,1.182,1.1803,1.1778,1.1765,1.1747,1.1724,1.1704,1.1679,1.1657,1.1628,1.1604,1.1596,1.1586,1.1591,1.159,1.1587,1.1567,1.1569,1.1599,1.1599,1.1599,1.1599,1.1599,1.1599,1.1913,1.1897,1.1881,1.1855,1.1836,1.1815,1.1803,1.1784,1.1765,1.1739,1.1721,1.1702,1.1676,1.165,1.1629,1.1621,1.1613,1.1621,1.161,1.1592,1.1588,1.1584,1.1587,1.162,1.162,1.1631,1.1631,1.1632]},{"header":{"parameterUnit":"m.s-1","parameterCategory":1,"la1":30.2991,"la2":30.254,"lo1":-89.0895,"lo2":-89.0444,"dy":0.0017,"dx":0.0017,"nx":28,"ny":28,"refTime":"2024-12-18T03:00:00:Z","depth":0,"parameterNumber":3,"parameterNumberName":"V-component_of_WINDS"},"data":[0,0,0,0,0,0,0,0,0,0,0,0,0,0,0,0,0,0,0,0,0,0,0,0,0,0,0,0,0,0,0,0,0,0,0,0,0,0,0,0,0,0,0,0,0,0,0,0,0,0,0,0,0,0,0,0,0,0,-3.8905,-3.8907,0,-3.9073,-3.9075,-3.9077,-3.9119,-3.9118,-3.9116,-3.9115,-3.9289,-3.9294,-3.93,0,0,0,0,0,0,0,0,0,0,0,0,0,-3.8622,-3.8627,-3.8905,-3.8907,-3.8909,-3.9073,-3.9075,-3.9078,-3.9119,-3.9117,-3.9116,-3.9115,-3.9287,-3.9293,-3.93,0,0,0,0,0,0,0,0,0,0,0,0,0,-3.8763,-3.8628,-3.8905,-3.8949,-3.8955,-3.9073,-3.9076,-3.9078,-3.9119,-3.9117,-3.9116,-3.9114,-3.9284,-3.9293,-3.9301,-3.9386,0,0,-3.9327,-3.9331,0,0,0,0,0,0,0,0,-3.8755,-3.8773,-3.8941,-3.8947,-3.8953,-3.9073,-3.9039,-3.9182,-3.912,-3.9057,-3.9115,-3.9113,-3.9218,-3.9232,-3.9267,-3.9394,-3.9402,-3.9328,-3.9333,-3.9336,-3.9339,0,0,0,0,0,0,0,-3.8745,-3.8766,-3.8972,-3.8943,-3.8951,-3.8962,-3.898,-3.9066,-3.9145,-3.9062,-3.9066,-3.9085,-3.9221,-3.9259,-3.9272,-3.9404,-3.9327,-3.9335,-3.934,-3.9343,-3.9613,-3.9615,0,0,0,0,0,0,-3.8727,-3.8758,-3.8966,-3.8977,-3.8848,-3.8968,-3.8989,-3.9036,-3.9144,-3.9159,-3.9086,-3.9086,-3.9245,-3.9262,-3.9278,-3.9388,-3.9336,-3.9344,-3.9349,-3.9611,-3.9614,-3.9616,0,0,0,0,0,0,-3.8721,-3.8745,-3.896,-3.8868,-3.8896,-3.8975,-3.9028,-3.9041,-3.9078,-3.9162,-3.9176,-3.911,-3.9245,-3.9266,-3.936,-3.9394,-3.9348,-3.9356,-3.9609,-3.9612,-3.9615,-3.9605,0,0,0,0,0,0,-3.8713,-3.8743,-3.8775,-3.8869,-3.8901,-3.9038,-3.903,-3.9045,-3.9093,-3.9094,-3.9188,-3.9202,-3.9245,-3.9347,-3.9368,-3.9405,-3.9362,-3.9606,-3.961,-3.9614,-3.9603,-3.9608,-3.9612,0,0,0,0,0,-3.8702,-3.8765,-3.8777,-3.8802,-3.8943,-3.9039,-3.9058,-3.9106,-3.9095,-3.9129,-3.9184,-3.9199,-3.9386,-3.9356,-3.938,-3.942,-3.9604,-3.9609,-3.9614,-3.9601,-3.9607,-3.9612,0,0,0,0,0,0,-3.8673,-3.8778,-3.8792,-3.8887,-3.8954,-3.9046,-3.909,-3.911,-3.9182,-3.918,-3.9237,-3.9258,-3.9348,-3.9393,-3.9358,-3.951,-3.9495,-3.9505,-3.9477,-3.9484,-3.9488,-3.9476,-3.9369,0,0,0,0,0,-3.8678,-3.8747,-3.8835,-3.891,-3.8943,-3.9011,-3.9055,-3.9086,-3.9158,-3.9186,-3.9247,-3.9317,-3.9392,-3.944,-3.9513,-3.9609,-3.9632,-3.9649,-3.9653,-3.9657,-3.9665,-3.9722,-3.9732,-3.9632,-3.9632,-3.9632,0,0,-3.8688,-3.8754,-3.8794,-3.8906,-3.8962,-3.9033,-3.9035,-3.9109,-3.9163,-3.9198,-3.9291,-3.9338,-3.942,-3.9516,-3.9561,-3.9556,-3.9698,-3.9663,-3.9664,-3.9671,-3.9728,-3.9738,-3.9746,-3.9635,-3.9634,-3.9634,0,0,-3.8744,-3.8799,-3.887,-3.8926,-3.9011,-3.9056,-3.9073,-3.9163,-3.9196,-3.929,-3.9318,-3.9384,-3.951,-3.9569,-3.9615,-3.9695,-3.9714,-3.9717,-3.9741,-3.9797,-3.9805,-3.9812,-3.9843,-3.9854,-3.9725,-3.9725,-3.9725,0,-3.8746,-3.8854,-3.8903,-3.8978,-3.9028,-3.9063,-3.9136,-3.9188,-3.9292,-3.9326,-3.9319,-3.9481,-3.9538,-3.965,-3.967,-3.9705,-3.9728,-3.9708,-3.9799,-3.9807,-3.9815,-3.9845,-3.9857,-3.9725,-3.9725,-3.9725,-3.9725,0,-3.8854,-3.8929,-3.8976,-3.9077,-3.9132,-3.9204,-3.9266,-3.9316,-3.9343,-3.9389,-3.9486,-3.9556,-3.9646,-3.9674,-3.97,-3.9791,-3.9785,-3.9788,-3.9775,-3.9824,-3.9854,-3.9865,-3.9725,-3.9725,-3.9725,-3.9725,0,0,-3.8896,-3.9025,-3.9041,-3.9089,-3.9186,-3.9245,-3.9321,-3.9409,-3.9452,-3.9523,-3.9589,-3.9697,-3.9701,-3.9753,-3.9786,-3.9835,-3.9898,-3.9832,-3.9835,-3.9844,-4.0005,-4.0004,-4.0017,-3.991,-3.9912,-3.9914,-3.9999,0,-3.8966,-3.9102,-3.915,-3.9263,-3.9335,-3.937,-3.9436,-3.9504,-3.9549,-3.9617,-3.9668,-3.9744,-3.9742,-3.9775,-3.9824,-3.9879,-3.9931,-3.9874,-3.9974,-3.9977,-3.9955,-4.0032,-4.0031,-4.0108,-4.0011,-4.0013,-4.0014,0,-3.9065,-3.9139,-3.9259,-3.9351,-3.9382,-3.9441,-3.9527,-3.9591,-3.9669,-3.9699,-3.9759,-3.9789,-3.9872,-3.9852,-3.9968,-3.9928,-3.9972,-4.0006,-4.001,-4.0023,-4.0,-4.005,-4.0133,-4.0146,-4.0033,-4.0031,-4.003,0,-3.9087,-3.9216,-3.9306,-3.9345,-3.9453,-3.9494,-3.9541,-3.9617,-3.9668,-3.9743,-3.9777,-3.986,-3.9907,-3.9971,-4.0025,-4.0005,-4.0137,-4.0121,-4.0166,-4.0165,-4.0193,-4.0191,-4.0288,-4.0217,-4.0217,-4.0217,-4.0217,0,-3.9161,-3.9234,-3.9318,-3.9373,-3.9457,-3.9511,-3.9593,-3.9642,-3.971,-3.9777,-3.9812,-3.9874,-3.9939,-4.001,-4.0052,-4.0143,-4.0163,-4.0191,-4.0202,-4.019,-4.0186,-4.0221,-4.0218,-4.022,-4.022,-4.0219,-4.0218,0,-3.92,-3.9259,-3.936,-3.9454,-3.9479,-3.9537,-3.9618,-3.9674,-3.9722,-3.9806,-3.9829,-3.9904,-3.999,-4.0049,-4.0158,-4.0187,-4.0286,-4.0295,-4.026,-4.0266,-4.0308,-4.0305,-4.0432,-4.0453,-4.0366,-4.0367,-4.0368,0,-3.9245,-3.9302,-3.9403,-3.945,-3.9498,-3.9573,-3.9626,-3.9682,-3.9735,-3.983,-3.9875,-3.9963,-4.0037,-4.0173,-4.0238,-4.0323,-4.0335,-4.0374,-4.0348,-4.0335,-4.0339,-4.0336,-4.0344,-4.0379,-4.0379,-4.038,-4.038,0,-3.9319,-3.9345,-3.942,-3.9505,-3.9567,-3.9637,-3.9707,-3.9744,-3.9813,-3.9871,-3.996,-4.0017,-4.013,-4.0218,-4.0309,-4.0359,-4.0382,-4.0388,-4.0403,-4.0392,-4.0371,-4.0386,-4.0274,-4.0385,-4.0384,-4.0384,-4.0384,-4.0384,-3.9364,-3.9418,-3.9498,-3.958,-3.9639,-3.9705,-3.9763,-3.9818,-3.9893,-3.999,-4.0018,-4.0111,-4.0191,-4.0316,-4.0367,-4.0441,-4.0438,-4.046,-4.0466,-4.0471,-4.0472,-4.0357,-4.0458,-4.0458,-4.0458,-4.0458,-4.0458,0,-3.9442,-3.9496,-3.9571,-3.9669,-3.9734,-3.975,-3.9829,-3.9883,-3.9964,-4.0036,-4.0109,-4.0212,-4.0298,-4.037,-4.046,-4.0506,-4.0519,-4.0527,-4.0526,-4.0538,-4.0468,-4.0447,-4.0516,-4.0515,-4.0515,-4.0515,-4.0515,-4.0515,-3.949,-3.9583,-3.962,-3.9743,-3.9797,-3.9888,-3.9933,-3.9994,-4.0052,-4.0166,-4.0238,-4.0284,-4.0357,-4.0453,-4.0534,-4.0553,-4.0585,-4.0592,-4.0614,-4.0548,-4.0542,-4.0536,-4.0516,-4.0598,-4.0598,-4.0678,-4.0678,-4.0679]}]]